Flag for Liechtenstein Weather past 2 weeks in Vaduz, Liechtenstein

Now
54 °F

Cool.


Feels Like: 53 °F
Forecast: 36 / 66 °F
Wind: 5 mph from Northwest

Location: Vaduz

Current Time: Apr 28, 2015 at 4:44:07 AM

Latest Report: Apr 28, 2015 at 4:00 AM


Visibility: N/A

Pressure: 29.62 "Hg

Humidity: 88%

Dew point: 51 °F

Location of VaduzLocation

Historic Weather in Vaduz — Graph

°F

Vaduz temperature yesterday

Maximum temperature yesterday: 72 °F (at 3:00 PM)
Minimum temperature yesterday: 60 °F (at 8:00 AM)
Average temperature yesterday: 65 °F

Past Weeks' High & Low Weather Summary

 TemperatureHumidityPressure
High76 °F (Apr 15, 3:00 PM)96% (Apr 18, 2:00 AM)30.48 "Hg (Apr 18, 2:00 AM)
Low34 °F (Apr 19, 7:00 AM)19% (Apr 15, 3:00 PM)29.41 "Hg (Apr 27, 6:00 PM)
Average57 °F55%30.06 "Hg
* Reported Apr 13 3:00 AM — Apr 28 3:00 AM, Vaduz, Weather by CustomWeather, © 2015

Note: Actual official high and low records may vary slightly from our data, if they occured in-between our weather recording intervals... More about our weather records

Advertising

Vaduz weather history for previous 24 hours

 ConditionsComfort  
Time TempWeatherWind HumidityBarometerVisibility
3:00 AM
Tue, Apr 28
56 °FCool.5 mph79%29.61 "HgN/A
2:00 AM58 °FCool.1 mph71%29.59 "HgN/A
1:00 AM58 °FRefreshingly cool.2 mph60%29.57 "HgN/A
12:00 AM62 °FRefreshingly cool.5 mph47%29.53 "HgN/A
10:00 PM
Mon, Apr 27
64 °FMild.6 mph39%29.47 "HgN/A
9:00 PM65 °FMild.2 mph39%29.44 "HgN/A
8:00 PM68 °FOvercast.2 mph37%29.41 "Hg12 mi
7:00 PM69 °FMild.No wind43%29.41 "HgN/A
6:00 PM68 °FMild.2 mph50%29.41 "HgN/A
5:00 PM68 °FOvercast.5 mph47%29.44 "Hg7 mi
4:00 PM69 °FMild.5 mph43%29.44 "HgN/A
3:00 PM72 °FMild.6 mph43%29.44 "HgN/A
2:00 PM67 °FOvercast.5 mph47%29.47 "Hg7 mi
1:00 PM67 °FMild.3 mph49%29.50 "HgN/A
12:00 PM66 °FMild.5 mph49%29.50 "HgN/A
11:00 AM67 °FScattered clouds.8 mph47%29.50 "Hg9 mi
10:00 AM64 °FMild.6 mph47%29.54 "HgN/A
9:00 AM62 °FRefreshingly cool.5 mph49%29.55 "HgN/A
8:00 AM60 °FScattered clouds.3 mph49%29.57 "Hg9 mi
7:00 AM60 °FRefreshingly cool.3 mph45%29.57 "HgN/A
6:00 AM62 °FRefreshingly cool.3 mph41%29.56 "HgN/A
5:00 AM63 °FFog.6 mph38%29.57 "Hg6 mi
4:00 AM64 °FMild.9 mph37%29.59 "HgN/A
Weather by CustomWeather, © 2015

See weather overviewHow to use our weather pages